Flag for Brazil Weather past 2 weeks in Salvador, Bahia, Brazil

Now
77 °F

Passing clouds.


Feels Like: 79 °F
Forecast: 75 / 82 °F
Wind: 14 mph from East

Location: Salvador Aeroporto

Current Time: Oct 25, 2014 at 10:23:55 PM

Latest Report: Oct 25, 2014 at 10:00 PM


Visibility: N/A

Pressure: 29.95 "Hg

Humidity: 79%

Dew point: 70 °F

Location of SalvadorLocation

Historic Weather in Salvador — Graph

°F

Salvador temperature yesterday

Maximum temperature yesterday: 82 °F (at 10:00 AM)
Minimum temperature yesterday: 77 °F (at 12:00 AM)
Average temperature yesterday: 79 °F

Past Weeks' High & Low Weather Summary

 TemperatureHumidityPressure
High84 °F (Oct 14, 3:00 PM)89% (Oct 12, 8:00 AM)30.12 "Hg (Oct 12, 8:00 AM)
Low72 °F (Oct 15, 5:00 AM)54% (Oct 23, 2:00 PM)29.86 "Hg (Oct 20, 2:00 PM)
Average78 °F71%30.01 "Hg
* Reported Oct 10 9:00 PM — Oct 25 9:00 PM, Salvador, Weather by CustomWeather, © 2014

Note: Actual official high and low records may vary slightly from our data, if they occured in-between our weather recording intervals... More about our weather records

Advertising

Salvador weather history for previous 24 hours

 ConditionsComfort  
Time TempWeatherWind HumidityBarometerVisibility
9:00 PM
Oct 25
77 °FPassing clouds.12 mph79%29.95 "HgN/A
8:00 PM77 °FPassing clouds.13 mph79%29.95 "HgN/A
7:00 PM77 °FPassing clouds.13 mph74%29.92 "HgN/A
6:00 PM79 °FScattered clouds.10 mph70%29.92 "HgN/A
5:00 PM79 °FScattered clouds.13 mph70%29.92 "HgN/A
4:00 PM79 °FScattered clouds.14 mph70%29.92 "HgN/A
3:00 PM81 °FScattered clouds.15 mph66%29.92 "HgN/A
2:00 PM82 °FScattered clouds.15 mph66%29.92 "HgN/A
1:00 PM79 °FScattered clouds.14 mph74%29.95 "HgN/A
12:00 PM77 °FRain. Broken clouds.13 mph83%N/A3 mi
11:00 AM81 °FScattered clouds.7 mph70%29.98 "HgN/A
10:00 AM81 °FScattered clouds.8 mph66%29.98 "HgN/A
9:00 AM82 °FScattered clouds.7 mph62%29.98 "HgN/A
8:00 AM81 °FScattered clouds.10 mph62%29.98 "HgN/A
7:00 AM81 °FScattered clouds.7 mph66%29.98 "HgN/A
6:00 AM79 °FPassing clouds.7 mph65%29.95 "HgN/A
5:00 AM75 °FPassing clouds.10 mph74%29.92 "HgN/A
4:00 AM75 °FPassing clouds.7 mph74%29.92 "HgN/A
3:00 AM75 °FPassing clouds.5 mph74%29.92 "HgN/A
2:00 AM75 °FPassing clouds.8 mph74%29.92 "HgN/A
1:00 AM77 °FPassing clouds.9 mph69%29.92 "HgN/A
12:00 AM77 °FPassing clouds.10 mph69%29.95 "HgN/A
11:00 PM
Oct 24
77 °FPassing clouds.8 mph74%29.98 "HgN/A
10:00 PM79 °FPassing clouds.9 mph65%29.98 "HgN/A
Weather by CustomWeather, © 2014

See weather overviewHow to use our weather pages